Weather History for Paphos, Cyprus

Change the Weather History Date:

Sunday, December 30, 2012

  Actual Average Record
Temperature  
Mean Temperature 58 °F -  
Max Temperature 66 °F 61 °F 71 °F (2010)
Min Temperature 50 °F 46 °F 44 °F (2003)
Degree Days  
Heating Degree Days 7    
Growing Degree Days 8 (Base 50)    
Moisture  
Dew Point 48 °F    
Average Humidity 71    
Maximum Humidity 88    
Minimum Humidity 42    
Precipitation  
Precipitation 0.00 in - - ()
Sea Level Pressure  
Sea Level Pressure 30.11 in    
Wind  
Wind Speed 7 mph ()    
Max Wind Speed 15 mph    
Max Gust Speed -    
Visibility 6.6 miles    
Events      
Averages and records for this station are not official NWS values.
T = Trace of Precipitation, MM = Missing Value Source: Averaged Metar Reports

Daily Weather History Graph

Daily Weather History Graph

Search for Another Location

Airport:

Trip Planner

Search our weather history database for the weather conditions in past years. The results will help you decide how hot, cold, wet, or windy it might be!

Date:

Astronomy

Dec. 30, 2012 Rise Set
Actual Time 6:56 AM EET 4:48 PM EET
Civil Twilight 6:28 AM EET 5:16 PM EET
Nautical Twilight 5:57 AM EET 5:48 PM EET
Astronomical Twilight 5:26 AM EET 6:18 PM EET
Moon 6:54 PM EET (12/30) 7:59 AM EET (12/30)
Length of Visible Light 10h 47m
Length of Day
9h 51m
Waning Gibbous, 96% of the Moon is Illuminated
Dec 30
Waning Gibbous
Jan 5
Last Quarter
Jan 11
New
Jan 19
First Quarter
Jan 27
Full

Hourly Weather History & Observations

Time (EET) Temp. Dew Point Humidity Pressure Visibility Wind Dir Wind Speed Gust Speed Precip Events Conditions
12:00 AM 53.6 °F 48.2 °F 82% 30.06 in 6.2 mi NNE 5.8 mph - N/A   Partly Cloudy
12:30 AM 51.8 °F 48.2 °F 88% 30.06 in 6.2 mi NNE 5.8 mph - N/A   Partly Cloudy
1:00 AM 53.6 °F 48.2 °F 82% 30.06 in 6.2 mi NNE 10.4 mph - N/A   Partly Cloudy
1:30 AM 53.6 °F 48.2 °F 82% 30.06 in - NE 9.2 mph - N/A   Clear
2:00 AM 54 °F 47 °F 72% 30.09 in 9 mi NE 6.9 mph - -   Scattered Clouds
2:00 AM 53.6 °F 48.2 °F 82% 30.06 in - NE 6.9 mph - N/A   Clear
2:30 AM 53.6 °F 48.2 °F 82% 30.09 in 6.2 mi East 3.5 mph - N/A   Unknown
3:00 AM 53.6 °F 48.2 °F 82% 30.09 in 6.2 mi NE 6.9 mph - N/A   Unknown
3:30 AM 53.6 °F 46.4 °F 77% 30.06 in 6.2 mi NE 5.8 mph - N/A   Unknown
4:00 AM 51.8 °F 46.4 °F 82% 30.09 in 6.2 mi NE 6.9 mph - N/A   Unknown
4:30 AM 51.8 °F 46.4 °F 82% 30.09 in 6.2 mi NE 6.9 mph - N/A   Unknown
5:00 AM 51.8 °F 46.4 °F 82% 30.09 in - NNE 6.9 mph - N/A   Clear
5:30 AM 51.8 °F 46.4 °F 82% 30.09 in - NE 8.1 mph - N/A   Clear
6:00 AM 51.8 °F 46.4 °F 82% 30.09 in - NE 6.9 mph - N/A   Clear
6:30 AM 51.8 °F 44.6 °F 76% 30.09 in - NE 4.6 mph - N/A   Clear
7:00 AM 51.8 °F 46.4 °F 82% 30.09 in - ENE 5.8 mph - N/A   Clear
7:30 AM 51.8 °F 46.4 °F 82% 30.12 in 6.2 mi NE 5.8 mph - N/A   Partly Cloudy
8:00 AM 54 °F 47 °F 72% 30.14 in 12 mi NE 5.8 mph - -   Scattered Clouds
8:00 AM 53.6 °F 48.2 °F 82% 30.12 in 6.2 mi NE 5.8 mph - N/A   Partly Cloudy
8:30 AM 55.4 °F 48.2 °F 77% 30.12 in 6.2 mi NE 5.8 mph - N/A   Partly Cloudy
9:00 AM 59.0 °F 50.0 °F 72% 30.12 in 6.2 mi NE 8.1 mph - N/A   Partly Cloudy
9:30 AM 60.8 °F 50.0 °F 68% 30.12 in 6.2 mi ENE 6.9 mph - N/A   Partly Cloudy
10:00 AM 64.4 °F 50.0 °F 59% 30.15 in 6.2 mi East 5.8 mph - N/A   Partly Cloudy
10:30 AM 64.4 °F 50.0 °F 59% 30.12 in 6.2 mi ESE 13.8 mph - N/A   Partly Cloudy
11:00 AM 66.2 °F 50.0 °F 56% 30.12 in 6.2 mi ESE 11.5 mph - N/A   Partly Cloudy
11:30 AM 66.2 °F 50.0 °F 56% 30.12 in 6.2 mi SE 11.5 mph - N/A   Partly Cloudy
12:00 PM 66.2 °F 50.0 °F 56% 30.12 in 6.2 mi SE 13.8 mph - N/A   Partly Cloudy
12:30 PM 66.2 °F 48.2 °F 52% 30.09 in 6.2 mi SE 13.8 mph - N/A   Partly Cloudy
1:00 PM 66.2 °F 46.4 °F 49% 30.09 in 6.2 mi SE 15.0 mph - N/A   Partly Cloudy
1:30 PM 66.2 °F 48.2 °F 52% 30.09 in 6.2 mi SE 13.8 mph - N/A   Partly Cloudy
2:00 PM 66 °F 48 °F 42% 30.11 in 25 mi SE 13.8 mph - -   Scattered Clouds
2:00 PM 66.2 °F 48.2 °F 52% 30.09 in 6.2 mi SE 13.8 mph - N/A   Partly Cloudy
2:30 PM 66.2 °F 50.0 °F 56% 30.09 in 6.2 mi SE 13.8 mph - N/A   Partly Cloudy
3:00 PM 66.2 °F 50.0 °F 56% 30.09 in 6.2 mi SE 13.8 mph - N/A   Partly Cloudy
3:30 PM 64.4 °F 51.8 °F 64% 30.09 in 6.2 mi SE 11.5 mph - N/A   Partly Cloudy
4:00 PM 64.4 °F 50.0 °F 59% 30.09 in 6.2 mi SE 13.8 mph - N/A   Partly Cloudy
4:30 PM 62.6 °F 50.0 °F 63% 30.09 in 6.2 mi ESE 11.5 mph - N/A   Partly Cloudy
5:00 PM 60.8 °F 48.2 °F 63% 30.09 in - East 8.1 mph - N/A   Clear
5:30 PM 57.2 °F 48.2 °F 72% 30.09 in - East 5.8 mph - N/A   Clear
6:00 PM 57.2 °F 48.2 °F 72% 30.12 in - ENE 6.9 mph - N/A   Clear
6:30 PM 57.2 °F 48.2 °F 72% 30.12 in 6.2 mi ENE 6.9 mph - N/A   Partly Cloudy
7:00 PM 57.2 °F 48.2 °F 72% 30.12 in 6.2 mi ENE 8.1 mph - N/A   Partly Cloudy
7:30 PM 55.4 °F 48.2 °F 77% 30.12 in 6.2 mi ENE 6.9 mph - N/A   Partly Cloudy
8:00 PM 56 °F 48 °F 67% 30.15 in 12 mi ENE 6.9 mph - -   Scattered Clouds
8:00 PM 55.4 °F 48.2 °F 77% 30.12 in - ENE 6.9 mph - N/A   Clear
8:30 PM 55.4 °F 48.2 °F 77% 30.12 in 6.2 mi NE 8.1 mph - N/A   Partly Cloudy
9:00 PM 55.4 °F 48.2 °F 77% 30.15 in 6.2 mi NE 8.1 mph - N/A   Partly Cloudy
9:30 PM 53.6 °F 48.2 °F 82% 30.15 in 6.2 mi NE 9.2 mph - N/A   Partly Cloudy
10:00 PM 53.6 °F 46.4 °F 77% 30.15 in 6.2 mi NE 6.9 mph - N/A   Partly Cloudy
10:30 PM 53.6 °F 48.2 °F 82% 30.15 in 6.2 mi NE 5.8 mph - N/A   Partly Cloudy
11:00 PM 53.6 °F 46.4 °F 77% 30.15 in 6.2 mi NE 8.1 mph - N/A   Partly Cloudy
11:30 PM 53.6 °F 46.4 °F 77% 30.12 in 6.2 mi NE 10.4 mph - N/A   Partly Cloudy